Regional Weather Roundup
Issued by NWS

Home | Current Version | Previous Version | Text Only | Print | Product List | Glossary Off
Versions: 1 2 3 4 5 6 7 8 9 10 11 12 13 14 15 16 17 18 19 20 21 22 23 24 25 26 27

000
ASUS45 KCYS 250710
RWRWY

WYOMING REGIONAL WEATHER ROUNDUP
NATIONAL WEATHER SERVICE CHEYENNE WY
100 AM MDT SAT MAR 25 2017

NOTE:  "FAIR" INDICATES FEW OR NO CLOUDS BELOW 12,000 FEET
WITH NO SIGNIFICANT WEATHER AND/OR OBSTRUCTIONS TO VISIBILITY.

WYZ001-250800-
YELLOWSTONE NATIONAL PARK

CITY           SKY/WX    TMP DP  RH WIND       PRES   REMARKS
LK YELLOWSTONE   N/A     30  28  92 VRB3      30.07S
W YELLOWSTONE  NOT AVBL

$$
WYZ002>013-054>058-071-098>099-250800-
NORTHERN WYOMING

CITY           SKY/WX    TMP DP  RH WIND       PRES   REMARKS
JACKSON        CLOUDY    34  32  93 SW9       30.09F WCI  26
CODY           FAIR      50  22  33 SW13      29.93S
GREYBULL       FAIR      49  34  56 W6        29.91R
WORLAND        FAIR      48  35  60 SE12      29.90S
SHERIDAN       CLOUDY    43  37  79 N3        29.83S
BUFFALO        FAIR      48  27  44 S9        29.85F
GILLETTE       FAIR      44  28  53 S24G30    29.89F
HULETT         FAIR      50  28  43 S16G31    29.92F
NEWCASTLE      FAIR      43  27  52 SE21      30.03F

$$
WYZ014>020-022>026-101>103-250800-
CENTRAL WYOMING

CITY           SKY/WX    TMP DP  RH WIND       PRES   REMARKS
BIG PINEY      CLOUDY    37  29  72 NE5       30.10F WCI  33
PINEDALE       LGT SNOW  34  30  86 E9        30.13S WCI  26
DUBOIS         PTSUNNY   36  23  60 N16G25    30.00F WCI  26
LANDER         FAIR      51  20  29 SW21G30   29.95S
RIVERTON       FAIR      44  27  51 NW3       29.97R
CASPER         FAIR      47  26  44 SW20      29.97F
DOUGLAS        FAIR      39  26  59 SE13      30.00F WCI  31

$$
WYZ021-027>030-104>119-250800-
SOUTHERN WYOMING

CITY           SKY/WX    TMP DP  RH WIND       PRES   REMARKS
EVANSTON       CLOUDY    40  25  55 SW14      30.09S WCI  32
KEMMERER         N/A     34  27  75 CALM      30.10F
FORT BRIDGER   CLOUDY    39  32  76 NW5       30.12S
ROCK SPRINGS   FAIR      41  31  67 S7        30.07F
DIXON            N/A     36  25  64 E13       30.16S WCI  27
RAWLINS        FAIR      39  23  52 SW10      30.08F WCI  32
SARATOGA       FAIR      30  23  74 SE9       30.11F WCI  22
LARAMIE        FAIR      26  20  77 S10       30.09F WCI  16
CHEYENNE       FAIR      30  24  78 SW8       30.10F WCI  22
TORRINGTON     FAIR      32  25  75 SE5       30.07F WCI  27
PINE BLUFFS    FAIR      27  21  80 SW3       30.12S

$$




USA.gov is the U.S. government's official web portal to all federal, state and local government web resources and services.